TimePDT,TemperatureF,Dew PointF,Humidity,Sea Level PressureIn,VisibilityMPH,Wind Direction,Wind SpeedMPH,Gust SpeedMPH,PrecipitationIn,Events,Conditions,WindDirDegrees,DateUTC
12:55 AM,60.1,55.0,83,29.93,8.0,Calm,Calm,-,N/A,,Clear,0,2013-10-02 07:55:00
1:55 AM,60.1,55.0,83,29.94,9.0,Calm,Calm,-,N/A,,Clear,0,2013-10-02 08:55:00
2:55 AM,59.0,53.1,81,29.93,10.0,Calm,Calm,-,N/A,,Clear,0,2013-10-02 09:55:00
3:55 AM,57.0,52.0,83,29.94,9.0,Calm,Calm,-,N/A,,Clear,0,2013-10-02 10:55:00
4:55 AM,57.9,55.0,90,29.94,8.0,ENE,3.5,-,N/A,,Clear,70,2013-10-02 11:55:00
5:55 AM,57.0,53.1,87,29.95,9.0,NE,5.8,-,N/A,,Clear,40,2013-10-02 12:55:00
6:55 AM,57.0,53.1,87,29.96,7.0,ENE,3.5,-,N/A,,Clear,60,2013-10-02 13:55:00
7:55 AM,60.1,55.0,83,29.98,7.0,Calm,Calm,-,N/A,,Partly Cloudy,0,2013-10-02 14:55:00
8:05 AM,60.8,55.4,82,29.95,7.0,Calm,Calm,-,N/A,,Mostly Cloudy,0,2013-10-02 15:05:00
8:55 AM,68.0,55.9,65,29.99,8.0,NE,4.6,-,N/A,,Mostly Cloudy,50,2013-10-02 15:55:00
9:55 AM,70.0,55.0,59,29.99,10.0,NNE,4.6,-,N/A,,Mostly Cloudy,20,2013-10-02 16:55:00
10:55 AM,71.1,55.9,59,29.98,10.0,Calm,Calm,-,N/A,,Scattered Clouds,0,2013-10-02 17:55:00
11:55 AM,73.0,57.0,57,29.97,10.0,WSW,9.2,-,N/A,,Scattered Clouds,240,2013-10-02 18:55:00
12:41 PM,73.4,57.2,57,29.94,10.0,West,9.2,-,N/A,,Scattered Clouds,260,2013-10-02 19:41:00
12:55 PM,72.0,57.0,59,29.96,10.0,West,11.5,-,N/A,,Scattered Clouds,270,2013-10-02 19:55:00
1:55 PM,72.0,57.0,59,29.94,10.0,West,13.8,-,N/A,,Partly Cloudy,260,2013-10-02 20:55:00
2:55 PM,71.1,57.9,63,29.93,10.0,WSW,10.4,-,N/A,,Scattered Clouds,240,2013-10-02 21:55:00
3:55 PM,70.0,57.9,65,29.92,9.0,West,12.7,-,N/A,,Scattered Clouds,260,2013-10-02 22:55:00
4:55 PM,68.0,57.9,70,29.91,9.0,West,9.2,-,N/A,,Scattered Clouds,260,2013-10-02 23:55:00
5:55 PM,64.0,57.0,78,29.92,9.0,WSW,8.1,-,N/A,,Partly Cloudy,240,2013-10-03 00:55:00
6:55 PM,62.1,55.9,80,29.93,7.0,West,8.1,-,N/A,,Partly Cloudy,260,2013-10-03 01:55:00
7:45 PM,60.8,55.4,82,29.91,8.0,West,5.8,-,N/A,,Mostly Cloudy,270,2013-10-03 02:45:00
7:55 PM,61.0,55.9,83,29.94,9.0,West,5.8,-,N/A,,Overcast,270,2013-10-03 02:55:00
8:55 PM,61.0,55.9,83,29.96,8.0,Calm,Calm,-,N/A,,Overcast,0,2013-10-03 03:55:00
9:55 PM,61.0,55.9,83,29.95,8.0,North,3.5,-,N/A,,Overcast,350,2013-10-03 04:55:00
10:35 PM,60.8,55.4,82,29.92,8.0,Calm,Calm,-,N/A,,Scattered Clouds,0,2013-10-03 05:35:00
10:55 PM,60.1,55.0,83,29.95,8.0,NNE,3.5,-,N/A,,Clear,20,2013-10-03 05:55:00
11:55 PM,60.1,55.9,86,29.94,8.0,ENE,5.8,-,N/A,,Clear,70,2013-10-03 06:55:00